Flag for Germany Weather past 2 weeks in Altenburg, Thuringia, Germany

Now
59 °F

Broken clouds.


Feels Like: 60 °F
Forecast: 53 / 66 °F
Wind: 3 mph from North

Location: Altenburg Nobitz

Current Time: May 24, 2015 at 11:59:06 AM

Latest Report: May 24, 2015 at 11:20 AM


Visibility: N/A

Pressure: 30.12 "Hg

Humidity: 63%

Dew point: 46 °F

Location of AltenburgLocation

Historic Weather in Altenburg — Graph

°F

Altenburg temperature yesterday

Maximum temperature yesterday: 66 °F (at 12:50 PM)
Minimum temperature yesterday: 54 °F (at 9:20 AM)
Average temperature yesterday: 63 °F

Past Weeks' High & Low Weather Summary

 TemperatureHumidityPressure
High72 °F (May 18, 2:50 PM)94% (May 9, 6:20 PM)30.30 "Hg (May 9, 6:20 PM)
Low46 °F (May 14, 8:50 AM)35% (May 18, 1:50 PM)29.68 "Hg (May 18, 7:20 PM)
Average60 °F55%30.03 "Hg
* Reported May 9 10:20 AM — May 24 10:50 AM, Altenburg, Weather by CustomWeather, © 2015

Note: Actual official high and low records may vary slightly from our data, if they occured in-between our weather recording intervals... More about our weather records

Advertising

Altenburg weather history for previous 24 hours

 ConditionsComfort  
Time TempWeatherWind HumidityBarometerVisibility
10:50 AM
Sun, May 24
59 °FBroken clouds.3 mph68%30.12 "HgN/A
10:20 AM59 °FBroken clouds.5 mph72%30.12 "HgN/A
9:50 AM57 °FPartly sunny.5 mph72%30.12 "HgN/A
9:20 AM55 °FPartly sunny.5 mph82%30.12 "HgN/A
8:50 AM54 °FPartly sunny.5 mph88%30.12 "HgN/A
6:50 PM
Sat, May 23
63 °FSunny.7 mph59%30.04 "Hg10 mi
6:20 PM64 °FPassing clouds.5 mph56%30.04 "HgN/A
5:50 PM64 °FBroken clouds.6 mph52%30.04 "HgN/A
5:20 PM64 °FBroken clouds.7 mph56%30.04 "HgN/A
4:50 PM66 °FBroken clouds.8 mph52%30.04 "HgN/A
4:20 PM64 °FBroken clouds.9 mph52%30.07 "HgN/A
3:50 PM66 °FPassing clouds.8 mph49%30.07 "HgN/A
3:20 PM66 °FPassing clouds.7 mph49%30.07 "HgN/A
2:50 PM64 °FPassing clouds.6 mph49%30.07 "HgN/A
2:20 PM64 °FPassing clouds.7 mph49%30.07 "HgN/A
1:50 PM64 °FPassing clouds.8 mph49%30.07 "HgN/A
1:20 PM66 °FPassing clouds.7 mph46%30.09 "HgN/A
12:50 PM66 °FPassing clouds.6 mph49%30.09 "HgN/A
12:20 PM64 °FPassing clouds.5 mph56%30.09 "HgN/A
11:50 AM63 °FSunny.2 mph56%30.12 "Hg10 mi
11:20 AM59 °FSunny.3 mph63%30.12 "Hg10 mi
Weather by CustomWeather, © 2015

See weather overviewHow to use our weather pages